Regional Weather Roundup
Issued by NWS

Home | Current Version | Previous Version | Graphics & Text | Print | Product List | Glossary On
Versions: 1 2 3 4 5 6 7 8 9 10 11 12 13 14 15 16 17 18 19 20 21 22 23 24 25 26 27 28 29 30 31 32 33 34 35 36 37 38 39 40 41 42 43 44 45 46 47 48 49 50
000
ASUS43 KLMK 280010
RWRKY
KENTUCKY REGIONAL WEATHER ROUNDUP
NATIONAL WEATHER SERVICE LOUISVILLE KY
700 PM EST FRI FEB 27 2015

NOTE "FAIR" INDICATES FEW OR NO CLOUDS BELOW 12,000 FEET
WITH NO SIGNIFICANT WEATHER AND/OR OBSTRUCTIONS TO VISIBILITY.

KYZ001>023-026-027-061>063-070>075-280100-
WESTERN AND SOUTH CENTRAL KENTUCKY

CITY           SKY/WX    TMP DP  RH WIND       PRES   REMARKS
PADUCAH        CLOUDY    24   8  50 NE8       30.61S WCI  15
HENDERSON      CLOUDY    21   9  58 N5        30.63R WCI  15
OWENSBORO      PTCLDY    23   9  55 N5        30.63R WCI  17
HOPKINSVILLE   MOCLDY    24   9  53 N7        30.58R WCI  16
BOWLING GREEN  CLEAR     25   6  44 NE6       30.58R WCI  18
GLASGOW        CLEAR     23   8  53 NE7       30.58R WCI  14
$$

KYZ024-025-028>034-038-045-046-053-280100-
NORTH CENTRAL KENTUCKY

CITY           SKY/WX    TMP DP  RH WIND       PRES   REMARKS
LOUISVILLE/SDF PTCLDY    22   3  44 N8        30.61R WCI  12
LOUISVILLE/LOU CLEAR     22   1  40 N6        30.62R WCI  14
FORT KNOX      CLEAR     22   5  48 NE6       30.57S WCI  14
$$

KYZ035>037-039>044-047>052-055>060-089>105-280100-
NORTHEAST KENTUCKY

CITY           SKY/WX    TMP DP  RH WIND       PRES   REMARKS
LEXINGTON      CLEAR     19   2  47 E5        30.58R WCI  12
COVINGTON      PTCLDY    18   2  49 N8        30.59R WCI   8
FRANKFORT      CLEAR     20   5  52 E5        30.58R WCI  13
$$

KYZ054-064>069-076>088-106>120-280100-
SOUTHEAST KENTUCKY

CITY           SKY/WX    TMP DP  RH WIND       PRES   REMARKS
JACKSON        CLEAR     21   6  52 VRB3      30.51R
LONDON         CLEAR     25   5  42 N6        30.51R WCI  18
SOMERSET       CLEAR     21   9  58 N6        30.57R WCI  14
MIDDLESBORO    CLEAR     25  10  53 NW3       30.50R
MONTICELLO     CLEAR     21   8  57 N8        30.58R WCI  11
$$




USA.gov is the U.S. government's official web portal to all federal, state and local government web resources and services.